Culiacan,

12:15 PM MDT on April 28, 2017 (GMT -0600)
Culiacan

Weather History for MMCL - October, 2012

Change the Weather History Date:

Tuesday, October 9, 2012

  Actual Average Record
Temperature  
Mean Temperature 82 °F -  
Max Temperature 99 °F 92 °F 105 °F (1999)
Min Temperature 64 °F 69 °F 64 °F (2012)
Cooling Degree Days 16    
Growing Degree Days 32 (Base 50)    
Moisture  
Dew Point 65 °F    
Average Humidity 55    
Maximum Humidity 84    
Minimum Humidity 10    
Precipitation  
Precipitation 0.00 in - - ()
Sea Level Pressure  
Sea Level Pressure 29.91 in    
Wind  
Wind Speed 2 mph ()    
Max Wind Speed 12 mph    
Max Gust Speed -    
Visibility 11.0 miles    
Events      
Averages and records for this station are not official NWS values.
T = Trace of Precipitation, MM = Missing Value Source: Averaged Metar Reports

Daily Weather History Graph

Daily Weather History Graph

Search for Another Location

Airport or City:

Trip Planner

Search our weather history database for the weather conditions in past years. The results will help you decide how hot, cold, wet, or windy it might be!

Date:

Astronomy

Oct. 09, 2012 Rise Set
Actual Time 7:05 AM MDT 6:48 PM MDT
Civil Twilight 6:42 AM MDT 7:10 PM MDT
Nautical Twilight 6:16 AM MDT 7:37 PM MDT
Astronomical Twilight 5:49 AM MDT 8:03 PM MDT
Moon 1:21 AM MDT (10/9) 2:44 PM MDT (10/9)
Length of Visible Light 12h 28m
Length of Day
11h 42m
Last Quarter, 36% of the Moon is Illuminated
Oct 9
Last Quarter
Oct 15
New
Oct 21
First Quarter
Oct 29
Full
Nov 6
Last Quarter

Hourly Weather History & Observations

Time (MDT) Temp. Heat Index Dew Point Humidity Pressure Visibility Wind Dir Wind Speed Gust Speed Precip Events Conditions
1:41 AM 73.4 °F - 68.0 °F 83% 29.89 in 10.0 mi Calm Calm - N/A   Clear
2:50 AM 74 °F - 68 °F 77% 29.93 in 6 mi West 2.2 mph - -  
5:50 AM 66 °F - 62 °F 84% 29.87 in 10 mi NNW 2.2 mph - -  
5:53 AM 71.6 °F - 66.2 °F 83% 29.88 in 10.0 mi Calm Calm - N/A   Clear
6:41 AM 71.6 °F - 64.4 °F 78% 29.91 in 10.0 mi Calm Calm - N/A   Clear
7:40 AM 71.6 °F - 64.4 °F 78% 29.93 in 10.0 mi Calm Calm - N/A   Clear
8:35 AM 70 °F - 66 °F 84% 29.91 in 10 mi WSW 2.2 mph - -   Haze
8:43 AM 75.2 °F - 62.6 °F 65% 29.94 in 20.0 mi NNE 4.6 mph - N/A   Clear
9:41 AM 78.8 °F - 62.6 °F 57% 29.96 in 20.0 mi NNE 4.6 mph - N/A   Clear
10:42 AM 84.2 °F 85.0 °F 62.6 °F 48% 29.95 in 20.0 mi NNE 5.8 mph - N/A   Clear
11:35 AM 92 °F - 58 °F 23% 29.99 in 10 mi NW 2.2 mph - -   Haze
11:43 AM 87.8 °F 87.6 °F 60.8 °F 40% 29.94 in 20.0 mi NE 5.8 mph - N/A   Clear
12:40 PM 93.2 °F 93.3 °F 60.8 °F 34% 29.93 in 10.0 mi Calm Calm - N/A   Clear
1:43 PM 98.6 °F 102.8 °F 66.2 °F 35% 29.89 in 10.0 mi Calm Calm - N/A   Clear
2:40 PM 98 °F - 47 °F 10% 29.93 in 10 mi West 2.2 mph - -   Haze
2:50 PM 100.4 °F 103.6 °F 64.4 °F 31% 29.91 in 10.0 mi WSW 4.6 mph - N/A   Clear
3:45 PM 102.2 °F 105.5 °F 64.4 °F 29% 29.86 in 10.0 mi Calm Calm - N/A   Clear
4:40 PM 98.6 °F 102.8 °F 66.2 °F 35% 29.85 in 10.0 mi West 5.8 mph - N/A   Clear
5:40 PM 95 °F - 64 °F 26% 29.90 in 10 mi West 2.2 mph - -   Haze
5:40 PM 95.0 °F 99.5 °F 68.0 °F 41% 29.81 in 10.0 mi WNW 11.5 mph - N/A   Clear
6:41 PM 87.8 °F 91.4 °F 68.0 °F 52% 29.86 in 10.0 mi West 5.8 mph - N/A   Clear
7:43 PM 86.0 °F 89.4 °F 68.0 °F 55% 29.87 in 10.0 mi NW 11.5 mph - N/A   Clear
8:35 PM 82 °F - 69 °F 58% 29.95 in 6 mi Calm Calm - -  
8:41 PM 84.2 °F 88.4 °F 69.8 °F 62% 29.86 in 10.0 mi Calm Calm - N/A   Clear
9:40 PM 82.4 °F 86.3 °F 69.8 °F 66% 29.90 in 10.0 mi Calm Calm - N/A   Clear
10:41 PM 80.6 °F 83.9 °F 69.8 °F 70% 29.91 in 10.0 mi Calm Calm - N/A   Clear
11:35 PM 73 °F - 67 °F 76% 29.98 in 6 mi Calm Calm - -  
11:41 PM 80.6 °F 83.9 °F 69.8 °F 70% 29.88 in 10.0 mi Calm Calm - N/A   Clear